This demonstration page uses our WeatherBlox Daily Observations layout. Learn more.

41.55636, -103.73856

Hourly Observations for May 8, 2015

Temp ( °F °C ) Dew Point ( °F °C ) Humidity (%) Winds ( mph kmh ) Pressure ( in mb ) Visibility ( mi km ) Precip ( " mm )
12:53 am 00:53 Mostly Cloudy 43 6 37 3 81 81 E 3 6 30.09 1019 10 16.09344 0 0
1:53 am 01:53 Cloudy 43 6 36 2 76 76 ESE 7 11 30.09 1019 10 16.09344 0 0
2:53 am 02:53 Cloudy 43 6 37 3 81 81 ESE 6 9 30.12 1020 10 16.09344 0 0
3:53 am 03:53 Cloudy 45 7 37 3 76 76 ESE 5 7 30.09 1019 10 16.09344 0 0
4:53 am 04:53 Cloudy 45 7 39 4 81 81 Calm 30.09 1019 10 16.09344 0 0
5:53 am 05:53 Cloudy 45 7 37 3 76 76 Calm 30.09 1019 10 16.09344 0 0
6:53 am 06:53 Cloudy 45 7 37 3 76 76 E 6 9 30.09 1019 10 16.09344 0 0
7:53 am 07:53 Cloudy 46 8 37 3 71 71 ESE 10 17 30.09 1019 10 16.09344 0 0
8:53 am 08:53 Cloudy 46 8 36 2 66 66 ESE 12 19 30.09 1019 10 16.09344 0 0
9:53 am 09:53 Cloudy 48 9 37 3 66 66 ESE 13 20 30.06 1018 10 16.09344 0 0
10:53 am 10:53 Cloudy 48 9 37 3 66 66 SE 10 17 30.06 1018 10 16.09344 0 0
11:53 am 11:53 Cloudy 52 11 39 4 62 62 ESE 12 19 30 1016 10 16.09344 0 0
12:53 pm 12:53 Cloudy 52 11 37 3 58 58 ESE 8 13 30 1016 10 16.09344 0 0
1:53 pm 13:53 Cloudy 54 12 37 3 54 54 ESE 14 22 29.94 1014 10 16.09344 0 0
2:53 pm 14:53 Cloudy 54 12 39 4 58 58 SE 15 24 29.94 1014 10 16.09344 0 0
3:53 pm 15:53 Cloudy with Light Rain 52 11 43 6 72 72 SE 14 22 29.94 1014 10 16.09344 0.001 0.001
4:53 pm 16:53 Cloudy with Light Rain 48 9 46 8 94 94 E 13 20 29.97 1015 4 6.437376 0.05 1.27
5:53 pm 17:53 Cloudy 50 10 50 10 100 100 E 14 22 29.94 1014 9 14.484096 0.01 0.254
5:58 pm 17:58 Cloudy 50 10 N/A N/A E 13 20 29.94 1014 9 14.484096 0 0
6:37 pm 18:37 Cloudy with Light Rain 50 10 N/A N/A ESE 10 17 29.94 1014 5 8.04672 0.01 0.254
6:53 pm 18:53 Cloudy with Light Rain 50 10 N/A N/A ESE 9 15 29.94 1014 5 8.04672 0.01 0.254
7:53 pm 19:53 Cloudy with Mist and Fog 50 10 48 9 94 94 E 7 11 29.97 1015 6 9.656064 0.001 0.001
8:53 pm 20:53 Cloudy with Mist and Fog 48 9 48 9 100 100 E 8 13 29.97 1015 6 9.656064 0.02 0.508
9:20 pm 21:20 Cloudy with Mist and Fog 50 10 48 9 94 94 E 9 15 29.94 1014 6 9.656064 0 0
9:37 pm 21:37 Cloudy with Light Rain 50 10 48 9 94 94 E 8 13 29.94 1014 6 9.656064 0.001 0.001
9:50 pm 21:50 Cloudy with Rain 48 9 48 9 100 100 E 10 17 29.97 1015 3 4.828032 0 0
9:53 pm 21:53 Cloudy with Rain 48 9 48 9 100 100 E 10 17 29.97 1015 3 4.828032 0.02 0.508
10:53 pm 22:53 Cloudy 48 9 46 8 94 94 E 12 19 29.97 1015 10 16.09344 0.01 0.254
11:44 pm 23:44 Cloudy 48 9 46 8 94 94 E 12 19 29.97 1015 10 16.09344 0 0
11:53 pm 23:53 Cloudy 48 9 46 8 94 94 E 13 20 29.97 1015 10 16.09344 0.001 0.001

Powered by AerisWeather